CQ0XPA-11 SANTAREM PT current weather conditions

sailwx.info

Wind from 270

Air temperature 22.2° C
Dewpoint 15.1° C

Last reported at 2019-Aug-23 22:10 UTC.
Time now 2019-Aug-23 22:55 UTC

Location: N 39°13' W 008°25'.
View on Google Maps.

See reports from other nearby stations

  
Tides and Currents Weather Stations Pressure Air Temp Water Temp Dewpoint Dewpoint Depression Visibility Wind Speed Wind Dir Waves Ship Positions
date/time (UTC)wind fromknots sea level pressurealtimeterstation pressurevisibilityair tempwater tempwave heightnotes
2019-Aug-23 22:10 270 22.2
2019-Aug-23 22:03 112 22.2
2019-Aug-23 21:59 270 22.8
2019-Aug-23 21:53 112 22.8
2019-Aug-23 21:49 22.8
2019-Aug-23 21:43 225 22.8
2019-Aug-23 21:39 112 22.8
2019-Aug-23 21:33 247 23.3
2019-Aug-23 21:29 270 23.3
2019-Aug-23 21:23 112 23.3
2019-Aug-23 21:19 270 23.3
2019-Aug-23 21:15 270 23.3
2019-Aug-23 21:09 112 23.9
2019-Aug-23 21:04 112 23.9
2019-Aug-23 20:58 112 23.9
2019-Aug-23 20:54 112 23.9
2019-Aug-23 20:48 270 24.4
2019-Aug-23 20:44 315 24.4
2019-Aug-23 20:38 090 24.4
2019-Aug-23 20:34 225 24.4
2019-Aug-23 20:28 270 24.4
2019-Aug-23 20:24 112 25.0
2019-Aug-23 20:20 270 25.0
2019-Aug-23 20:14 270 25.0
2019-Aug-23 20:08 112 25.6
2019-Aug-23 20:03 112 25.6
2019-Aug-23 19:59 112 26.1
2019-Aug-23 19:53 270 26.1
2019-Aug-23 19:49 26.1
2019-Aug-23 19:43 112 26.7
2019-Aug-23 19:39 112 26.7
2019-Aug-23 19:33 112 27.2
2019-Aug-23 19:29 112 27.2
2019-Aug-23 19:23 112 27.8
2019-Aug-23 19:19 112 27.8
2019-Aug-23 19:15 28.3
2019-Aug-23 19:06 112 28.9
2019-Aug-23 19:04 112 28.9
2019-Aug-23 18:58 112 29.4
2019-Aug-23 18:54 29.4
2019-Aug-23 18:48 112 30.0
2019-Aug-23 18:44 112 30.6
2019-Aug-23 18:38 112 31.1
2019-Aug-23 18:34 31.1
2019-Aug-23 18:28 112 31.7
2019-Aug-23 18:22 112 32.2
2019-Aug-23 18:20 112 32.2
2019-Aug-23 18:14 112 32.8
2019-Aug-23 18:10 33.3
2019-Aug-23 18:03 33.9
2019-Aug-23 17:59 34.4
2019-Aug-23 17:53 112 35.0
2019-Aug-23 17:49 112 35.6
2019-Aug-23 17:43 112 35.6
2019-Aug-23 17:23 112 36.1
2019-Aug-23 17:19 022 36.1
2019-Aug-23 17:15 112 36.1
2019-Aug-23 17:08 112 36.1
2019-Aug-23 17:04 112 36.1
2019-Aug-23 16:58 36.7
2019-Aug-23 16:54 101 37.2
2019-Aug-23 16:48 112 37.2
2019-Aug-23 16:44 270 37.2
2019-Aug-23 16:38 112 37.2
2019-Aug-23 16:34 112 36.7
2019-Aug-23 16:28 270 36.7
2019-Aug-23 16:24 36.7
2019-Aug-23 16:20 270 36.7
2019-Aug-23 16:14 112 37.2
2019-Aug-23 16:09 112 37.2
2019-Aug-23 16:03 112 37.2
2019-Aug-23 15:59 112 37.2
2019-Aug-23 15:53 112 37.2
2019-Aug-23 15:49 112 37.2
2019-Aug-23 15:43 112 37.2
2019-Aug-23 15:39 112 36.7
2019-Aug-23 15:33 202 37.8
2019-Aug-23 15:29 112 38.3
2019-Aug-23 15:25 270 37.8
2019-Aug-23 15:19 112 37.2
2019-Aug-23 15:15 270 37.2
2019-Aug-23 15:08 270 37.2
2019-Aug-23 15:04 112 37.8
2019-Aug-23 14:58 270 37.8
2019-Aug-23 14:54 37.8
2019-Aug-23 14:48 112 37.8
2019-Aug-23 14:44 225 37.8
2019-Aug-23 14:38 112 37.8
2019-Aug-23 14:34 112 37.2
2019-Aug-23 14:28 112 37.2
2019-Aug-23 14:24 112 37.2
2019-Aug-23 14:20 112 36.7
2019-Aug-23 14:11 112 36.7
2019-Aug-23 14:09 112 36.7
2019-Aug-23 14:01 36.1
2019-Aug-23 13:59 112 36.1
2019-Aug-23 13:53 112 35.6
2019-Aug-23 13:49 315 35.6
2019-Aug-23 13:43 112 35.6
2019-Aug-23 13:39 270 36.1
2019-Aug-23 13:33 270 35.6
2019-Aug-23 13:29 270 35.6
2019-Aug-23 13:25 045 35.0
2019-Aug-23 13:19 112 35.0
2019-Aug-23 13:14 112 35.0
2019-Aug-23 13:08 112 35.0
2019-Aug-23 13:04 112 35.0
2019-Aug-23 12:58 112 35.0
2019-Aug-23 12:54 112 35.0
2019-Aug-23 12:48 270 35.0
2019-Aug-23 12:44 112 35.0
2019-Aug-23 12:38 35.0
2019-Aug-23 12:34 112 35.0
2019-Aug-23 12:30 35.0
2019-Aug-23 12:24 270 35.0
2019-Aug-23 12:20 112 35.0
2019-Aug-23 12:13 180 35.0
2019-Aug-23 12:09 112 34.4
2019-Aug-23 12:03 112 33.9
2019-Aug-23 11:59 112 33.3
2019-Aug-23 11:53 045 32.8
2019-Aug-23 11:49 112 32.8
2019-Aug-23 11:43 180 32.8
2019-Aug-23 11:39 112 32.8
2019-Aug-23 11:33 270 32.2
2019-Aug-23 11:29 045 32.2
2019-Aug-23 11:25 112 32.2
2019-Aug-23 11:19 270 32.2
2019-Aug-23 11:14 112 32.2
2019-Aug-23 11:08 112 32.2
2019-Aug-23 11:04 180 32.2
2019-Aug-23 10:58 112 32.2
2019-Aug-23 10:54 32.2
2019-Aug-23 10:48 090 31.7
2019-Aug-23 10:44 022 31.7
2019-Aug-23 10:38 135 31.1
2019-Aug-23 10:34 180 30.6
2019-Aug-23 10:30 270 30.6
2019-Aug-23 10:24 180 30.0
2019-Aug-23 10:20 180 30.0
2019-Aug-23 10:13 180 29.4
2019-Aug-23 10:09 180 28.9
2019-Aug-23 10:03 135 28.3
2019-Aug-23 09:59 180 28.3
2019-Aug-23 09:53 157 27.8
2019-Aug-23 09:49 045 27.2
2019-Aug-23 09:43 180 27.2
2019-Aug-23 09:39 045 26.7
2019-Aug-23 09:27 270 26.1
2019-Aug-23 09:14 135 25.6
2019-Aug-23 09:08 157 25.0
2019-Aug-23 09:04 270 25.0
2019-Aug-23 08:58 180 24.4
2019-Aug-23 08:54 135 24.4
2019-Aug-23 08:48 157 23.9
2019-Aug-23 08:44 135 23.3
2019-Aug-23 08:38 135 23.3
2019-Aug-23 08:34 135 23.3
2019-Aug-23 08:30 045 22.8
2019-Aug-23 08:24 168 22.2
2019-Aug-23 08:19 180 22.2
2019-Aug-23 08:13 112 21.7
2019-Aug-23 08:09 270 21.1
2019-Aug-23 08:03 270 20.6
2019-Aug-23 07:59 112 20.0
2019-Aug-23 07:53 112 20.0
2019-Aug-23 07:49 112 19.4
2019-Aug-23 07:43 112 19.4
2019-Aug-23 07:39 112 19.4
2019-Aug-23 07:35 112 18.9
2019-Aug-23 07:27 112 18.9
2019-Aug-23 07:25 112 18.9
2019-Aug-23 07:16 270 18.9
2019-Aug-23 07:14 270 18.9
2019-Aug-23 07:08 270 18.9
2019-Aug-23 07:04 270 18.9
2019-Aug-23 06:58 270 18.9
2019-Aug-23 06:54 270 18.9
2019-Aug-23 06:48 112 19.4
2019-Aug-23 06:44 112 19.4
2019-Aug-23 06:38 112 19.4
2019-Aug-23 06:34 112 19.4
2019-Aug-23 06:30 19.4
2019-Aug-23 06:24 270 19.4
2019-Aug-23 06:19 270 19.4
2019-Aug-23 06:13 270 20.0
2019-Aug-23 06:09 202 20.0
2019-Aug-23 06:03 202 20.6
2019-Aug-23 05:59 180 20.6
2019-Aug-23 05:53 180 20.6
2019-Aug-23 05:49 157 20.6
2019-Aug-23 05:43 180 20.6
2019-Aug-23 05:39 045 20.6
2019-Aug-23 05:35 135 20.6
2019-Aug-23 05:29 135 20.0
2019-Aug-23 05:24 135 20.0
2019-Aug-23 05:18 180 20.0
2019-Aug-23 05:14 180 20.6
2019-Aug-23 05:08 180 20.6
2019-Aug-23 05:04 180 21.1
2019-Aug-23 04:58 045 21.1
2019-Aug-23 04:54 135 21.1
2019-Aug-23 04:48 135 21.7
2019-Aug-23 04:44 135 22.2
2019-Aug-23 04:40 180 22.2
2019-Aug-23 04:32 045 22.2
2019-Aug-23 04:30 045 22.2
2019-Aug-23 04:21 180 22.2
2019-Aug-23 04:19 045 22.2
2019-Aug-23 04:11 180 22.2
2019-Aug-23 04:09 045 22.2
2019-Aug-23 04:03 202 22.2
2019-Aug-23 03:59 135 22.2
2019-Aug-23 03:53 045 22.2
2019-Aug-23 03:49 270 22.2
2019-Aug-23 03:43 045 22.2
2019-Aug-23 03:39 270 22.2
2019-Aug-23 03:35 112 22.2
2019-Aug-23 03:29 045 22.2
2019-Aug-23 03:24 112 22.2
2019-Aug-23 03:18 270 22.2
2019-Aug-23 03:14 270 22.2
2019-Aug-23 03:08 112 22.8
2019-Aug-23 03:04 270 22.8
2019-Aug-23 02:58 112 22.8
2019-Aug-23 02:54 270 22.8
2019-Aug-23 02:48 045 22.8
2019-Aug-23 02:44 112 22.8
2019-Aug-23 02:40 022 22.8
2019-Aug-23 02:34 270 22.8
2019-Aug-23 02:30 270 23.3
2019-Aug-23 02:23 112 23.3
2019-Aug-23 02:19 112 23.3
2019-Aug-23 02:13 112 23.3
2019-Aug-23 02:09 112 23.3
2019-Aug-23 02:03 157 23.3
2019-Aug-23 01:59 270 23.3
2019-Aug-23 01:53 112 23.9
2019-Aug-23 01:49 112 23.9
2019-Aug-23 01:43 270 23.9
2019-Aug-23 01:39 270 23.9
2019-Aug-23 01:24 078 23.9
2019-Aug-23 01:14 112 23.9
2019-Aug-23 01:08 045 23.9
2019-Aug-23 01:04 270 24.4
2019-Aug-23 00:58 045 24.4
2019-Aug-23 00:54 045 24.4
2019-Aug-23 00:48 270 24.4
2019-Aug-23 00:44 045 24.4
2019-Aug-23 00:40 270 24.4
2019-Aug-23 00:34 270 24.4
2019-Aug-23 00:29 112 24.4
2019-Aug-23 00:23 270 24.4
2019-Aug-23 00:19 045 25.0
2019-Aug-23 00:13 270 25.0
2019-Aug-23 00:09 112 25.0
2019-Aug-23 00:03 112 25.0
2019-Aug-22 23:59 045 25.0
2019-Aug-22 23:53 045 25.0
2019-Aug-22 23:49 045 25.0
2019-Aug-22 23:45 270 25.0
2019-Aug-22 23:39 045 25.0
2019-Aug-22 23:33 112 25.0
2019-Aug-22 23:26 112 25.0
2019-Aug-22 23:24 270 25.0
2019-Aug-22 23:18 112 25.0
2019-Aug-22 23:14 112 25.6
2019-Aug-22 23:08 112 25.6
2019-Aug-22 23:04 112 25.6
2019-Aug-22 22:58 112 25.6
2019-Aug-22 22:54 270 25.6
2019-Aug-22 22:48 045 25.6
2019-Aug-22 22:44 045 25.6
2019-Aug-22 22:38 225 26.1
2019-Aug-22 22:34 112 26.1
2019-Aug-22 22:29 270 26.1
2019-Aug-22 22:23 270 26.1
2019-Aug-22 22:19 270 26.1
2019-Aug-22 22:13 112 26.1
2019-Aug-22 22:09 112 26.1
2019-Aug-22 22:03 112 26.1
2019-Aug-22 21:59 112 26.7
2019-Aug-22 21:53 112 26.7
2019-Aug-22 21:49 112 26.7
2019-Aug-22 21:45 112 26.7
2019-Aug-22 21:39 112 26.7
2019-Aug-22 21:35 112 26.7
2019-Aug-22 21:26 26.7
2019-Aug-22 21:24 26.7
2019-Aug-22 21:18 112 27.2
2019-Aug-22 21:12 112 27.2
2019-Aug-22 21:08 112 27.2
2019-Aug-22 21:04 112 27.2
2019-Aug-22 20:58 112 27.2
2019-Aug-22 20:54 112 27.2
2019-Aug-22 20:48 112 27.8
2019-Aug-22 20:44 112 27.8
2019-Aug-22 20:40 112 27.8
2019-Aug-22 20:33 112 27.8
2019-Aug-22 20:29 112 27.8
2019-Aug-22 20:23 112 28.3
2019-Aug-22 20:19 112 28.3
2019-Aug-22 20:13 28.3
2019-Aug-22 20:09 112 28.3
2019-Aug-22 20:03 112 28.9
2019-Aug-22 19:59 112 28.9
2019-Aug-22 19:53 112 28.9
2019-Aug-22 19:49 112 29.4
2019-Aug-22 19:45 112 29.4
2019-Aug-22 19:39 112 29.4
2019-Aug-22 19:34 270 30.0
2019-Aug-22 19:28 112 30.0
2019-Aug-22 19:24 112 30.6
2019-Aug-22 19:18 112 30.6
2019-Aug-22 19:14 112 31.1
2019-Aug-22 19:08 112 31.7
2019-Aug-22 19:04 112 31.7
2019-Aug-22 18:58 112 32.2
2019-Aug-22 18:54 112 32.2
2019-Aug-22 18:50 270 32.8
2019-Aug-22 18:44 112 32.8
2019-Aug-22 18:40 112 33.3
2019-Aug-22 18:31 123 33.9
2019-Aug-22 18:29 270 33.9
2019-Aug-22 18:23 112 34.4
2019-Aug-22 18:19 35.0
2019-Aug-22 18:13 112 35.0
2019-Aug-22 18:09 270 35.0
2019-Aug-22 18:03 35.6
2019-Aug-22 17:59 270 36.1
2019-Aug-22 17:53 36.7
2019-Aug-22 17:49 36.7
2019-Aug-22 17:45 146 37.2
2019-Aug-22 17:39 37.8
2019-Aug-22 17:34 112 37.8
2019-Aug-22 17:28 38.3
2019-Aug-22 17:10 112 39.4
2019-Aug-22 17:06 39.4
2019-Aug-22 17:04 39.4
2019-Aug-22 16:58 112 39.4
2019-Aug-22 16:54 39.4
2019-Aug-22 16:50 112 39.4
2019-Aug-22 16:44 40.0
2019-Aug-22 16:40 112 40.0
2019-Aug-22 16:31 112 40.0
2019-Aug-22 16:29 112 40.0
2019-Aug-22 16:23 112 40.0
2019-Aug-22 16:19 40.0
2019-Aug-22 16:13 112 39.4
2019-Aug-22 16:09 112 39.4
2019-Aug-22 16:03 270 38.9
2019-Aug-22 15:59 112 38.9
2019-Aug-22 15:53 112 38.9
2019-Aug-22 15:49 112 38.9
2019-Aug-22 15:45 112 38.9
2019-Aug-22 15:38 39.4
2019-Aug-22 15:34 40.0
2019-Aug-22 15:28 270 40.0
2019-Aug-22 15:24 112 40.0
2019-Aug-22 15:18 112 40.0
2019-Aug-22 15:14 112 40.0
2019-Aug-22 15:08 40.0
2019-Aug-22 15:04 112 40.0
2019-Aug-22 14:58 40.6
2019-Aug-22 14:54 270 41.1
2019-Aug-22 14:50 112 41.1
2019-Aug-22 14:44 225 41.1
2019-Aug-22 14:39 112 41.1
2019-Aug-22 14:31 40.6
2019-Aug-22 14:29 40.6
2019-Aug-22 14:23 112 40.6
2019-Aug-22 14:19 315 40.6
2019-Aug-22 14:13 112 40.0
2019-Aug-22 14:09 40.0
2019-Aug-22 14:03 40.0
2019-Aug-22 13:59 112 40.0
2019-Aug-22 13:55 112 40.0
2019-Aug-22 13:49 112 39.4
2019-Aug-22 13:45 39.4
2019-Aug-22 13:38 045 39.4
2019-Aug-22 13:34 112 38.9
2019-Aug-22 13:28 112 38.3
2019-Aug-22 13:24 270 38.3
2019-Aug-22 13:18 112 38.9
2019-Aug-22 13:14 112 38.9
2019-Aug-22 13:08 112 38.9
2019-Aug-22 13:04 38.9
2019-Aug-22 12:58 270 38.3
2019-Aug-22 12:54 045 37.8
2019-Aug-22 12:50 270 37.8
2019-Aug-22 12:44 112 37.8
2019-Aug-22 12:37 045 37.8
2019-Aug-22 12:33 045 37.8
2019-Aug-22 12:27 045 37.2
2019-Aug-22 12:23 045 37.2
2019-Aug-22 12:19 135 37.2
2019-Aug-22 12:13 180 37.2
2019-Aug-22 12:09 022 37.2
2019-Aug-22 12:03 180 36.7
2019-Aug-22 11:57 112 36.1
2019-Aug-22 11:55 36.1
2019-Aug-22 11:49 045 35.6
2019-Aug-22 11:45 045 35.6
2019-Aug-22 11:36 135 35.6
2019-Aug-22 11:34 045 35.0
2019-Aug-22 11:28 045 35.0
2019-Aug-22 11:24 112 35.0
2019-Aug-22 11:16 270 35.0
2019-Aug-22 11:14 101 35.0
2019-Aug-22 11:08 180 34.4
2019-Aug-22 11:04 270 34.4
2019-Aug-22 10:58 180 33.9
2019-Aug-22 10:54 112 33.3
2019-Aug-22 10:50 168 33.3
2019-Aug-22 10:43 270 33.3
2019-Aug-22 10:39 045 32.8
2019-Aug-22 10:33 045 32.8
2019-Aug-22 10:29 247 32.2
2019-Aug-22 10:23 146 31.7
2019-Aug-22 10:19 157 31.1
2019-Aug-22 10:13 112 30.6
2019-Aug-22 10:09 168 30.6
2019-Aug-22 10:03 157 30.0
2019-Aug-22 09:59 157 30.0
2019-Aug-22 09:55 135 29.4
2019-Aug-22 09:49 157 28.9
2019-Aug-22 09:44 157 28.3
2019-Aug-22 09:36 157 27.8
2019-Aug-22 09:34 112 27.2
2019-Aug-22 09:28 112 26.7
2019-Aug-22 09:24 112 26.1
2019-Aug-22 09:04 112 24.4
2019-Aug-22 09:00 112 24.4
2019-Aug-22 08:54 112 23.9
2019-Aug-22 08:50 112 23.3
2019-Aug-22 08:43 112 23.3
2019-Aug-22 08:39 112 22.8
2019-Aug-22 08:33 112 22.2
2019-Aug-22 08:29 270 21.7
2019-Aug-22 08:23 112 21.1
2019-Aug-22 08:19 112 20.6
2019-Aug-22 08:13 270 20.0
2019-Aug-22 08:09 270 19.4
2019-Aug-22 08:03 270 18.9
2019-Aug-22 07:59 270 18.3
2019-Aug-22 07:53 270 17.2
2019-Aug-22 07:48 270 17.2
2019-Aug-22 07:42 270 16.7
2019-Aug-22 07:38 270 16.7
2019-Aug-22 07:34 270 16.1
2019-Aug-22 07:28 270 16.1
2019-Aug-22 07:24 270 15.6
2019-Aug-22 07:18 270 15.6
2019-Aug-22 07:14 270 15.6
2019-Aug-22 07:08 270 15.0
2019-Aug-22 07:04 270 15.0
2019-Aug-22 06:58 270 15.0
2019-Aug-22 06:54 270 15.0
2019-Aug-22 06:50 270 14.4
2019-Aug-22 06:43 270 14.4
2019-Aug-22 06:39 270 14.4
2019-Aug-22 06:33 270 14.4
2019-Aug-22 06:29 270 14.4
2019-Aug-22 06:23 270 15.0
2019-Aug-22 06:19 270 15.0
2019-Aug-22 06:13 270 15.0
2019-Aug-22 06:09 270 15.0
2019-Aug-22 06:03 112 15.0
2019-Aug-22 05:59 112 15.0
2019-Aug-22 05:55 045 15.0
2019-Aug-22 05:48 045 15.0
2019-Aug-22 05:44 045 15.0
2019-Aug-22 05:38 045 15.0
2019-Aug-22 05:34 045 15.0
2019-Aug-22 05:28 045 15.0
2019-Aug-22 05:22 180 15.0
2019-Aug-22 05:18 045 15.0
2019-Aug-22 05:14 045 15.0
2019-Aug-22 05:08 045 15.6
2019-Aug-22 05:04 045 15.6
2019-Aug-22 05:00 045 15.6
2019-Aug-22 04:53 045 15.6
2019-Aug-22 04:49 045 15.6
2019-Aug-22 04:43 045 16.1
2019-Aug-22 04:39 045 16.1
2019-Aug-22 04:33 045 16.1
2019-Aug-22 04:29 045 16.1
2019-Aug-22 04:23 045 16.7
2019-Aug-22 04:19 045 16.7
2019-Aug-22 04:13 045 17.2
2019-Aug-22 04:09 045 17.2
2019-Aug-22 04:05 045 17.2
2019-Aug-22 03:59 045 17.2
2019-Aug-22 03:54 045 17.8
2019-Aug-22 03:46 045 17.8
2019-Aug-22 03:44 045 17.8
2019-Aug-22 03:38 045 18.3
2019-Aug-22 03:34 045 18.3
2019-Aug-22 03:28 045 18.9
2019-Aug-22 03:24 045 18.9
2019-Aug-22 03:18 045 18.9
2019-Aug-22 03:14 045 19.4
2019-Aug-22 03:08 045 19.4
2019-Aug-22 03:04 045 20.0
2019-Aug-22 03:00 045 20.0
2019-Aug-22 02:53 045 20.6
2019-Aug-22 02:49 045 20.6
2019-Aug-22 02:43 045 21.1
2019-Aug-22 02:39 045 21.1
2019-Aug-22 02:33 045 21.1
2019-Aug-22 02:29 045 21.7
2019-Aug-22 02:23 180 21.7
2019-Aug-22 02:19 045 21.7
2019-Aug-22 02:13 045 21.7
2019-Aug-22 02:09 135 21.7
2019-Aug-22 02:05 180 21.7
2019-Aug-22 01:59 270 21.7
2019-Aug-22 01:54 045 21.7
2019-Aug-22 01:46 135 21.7
2019-Aug-22 01:44 135 21.7
2019-Aug-22 01:38 180 22.2
2019-Aug-22 01:34 135 22.2
2019-Aug-22 01:22 045 22.2
2019-Aug-22 01:10 270 22.2
2019-Aug-22 01:04 180 22.2
2019-Aug-22 01:00 270 22.2
2019-Aug-22 00:51 270 22.2
2019-Aug-22 00:49 045 22.2
2019-Aug-22 00:43 112 22.2
2019-Aug-22 00:39 270 22.2
2019-Aug-22 00:33 135 22.2
2019-Aug-22 00:29 270 22.2
2019-Aug-22 00:23 270 22.2
2019-Aug-22 00:19 180 22.2
2019-Aug-22 00:13 112 22.2
2019-Aug-22 00:07 112 22.2
2019-Aug-22 00:05 112 22.2
2019-Aug-21 23:58 045 22.2
2019-Aug-21 23:54 112 22.2
2019-Aug-21 23:48 112 22.2
2019-Aug-21 23:44 112 22.2
2019-Aug-21 23:38 112 22.2
2019-Aug-21 23:34 112 22.2
2019-Aug-21 23:28 045 22.2
2019-Aug-21 23:24 112 22.2
2019-Aug-21 23:18 135 22.2
2019-Aug-21 23:14 180 22.2
2019-Aug-21 23:10 045 22.2
2019-Aug-21 23:04 045 22.2
2019-Aug-21 22:59 270 22.2
2019-Aug-21 22:53 270 22.2
2019-Aug-21 22:49 045 22.2
2019-Aug-21 22:43 180 22.2
2019-Aug-21 22:39 180 22.2
2019-Aug-21 22:33 045 22.2
2019-Aug-21 22:29 045 22.2
2019-Aug-21 22:23 045 22.8
2019-Aug-21 22:19 022 22.8
2019-Aug-21 22:15 022 22.8
2019-Aug-21 22:09 022 22.8
2019-Aug-21 22:05 022 23.3